GEFSCGP_500_meanwind_000.txt.gz
Wind_Speed
23 21 23 25 23 24 26 24 23 25 25 25 25 22 21 23 25 26 24 22 21 22 25 28 32 32 31 29 29 29 31 28 29 30 32 34 38 42 46 50 53 55 56 55
22 22 27 27 25 24 25 25 25 25 23 25 27 28 25 22 23 26 28 26 26 28 32 36 37 35 32 31 33 33 32 33 35 37 39 41 46 49 51 52 56 58 57 56
24 26 29 28 27 26 26 26 25 25 25 25 28 28 23 23 26 28 29 31 32 34 37 39 36 34 33 34 35 36 36 37 40 44 47 49 52 53 56 58 58 57 59 61
25 27 29 28 27 27 26 27 26 25 25 27 27 27 24 25 28 30 32 34 36 37 38 36 32 30 32 35 36 38 39 42 46 51 52 53 55 57 59 58 59 62 63 65
25 26 29 27 26 27 28 28 27 25 26 27 28 29 28 28 30 33 34 35 34 33 33 33 33 32 34 35 37 39 43 46 48 51 54 57 56 58 62 65 68 69 69 73
26 27 28 27 26 26 28 29 28 29 29 28 28 29 30 29 30 31 32 34 34 32 34 34 35 35 35 38 39 41 45 47 50 55 60 63 65 68 71 73 76 77 79 83
26 26 26 26 26 27 28 27 25 26 27 27 26 29 29 30 30 30 31 32 34 36 36 36 35 34 33 36 39 43 46 52 58 63 66 69 72 75 77 78 80 83 85 85
25 25 25 24 25 26 27 27 26 27 28 29 30 31 33 33 32 33 34 34 34 32 30 31 32 33 35 40 44 49 55 61 65 68 71 73 75 78 80 82 84 84 81 79
24 24 22 21 21 24 26 27 27 28 31 33 36 37 37 35 36 37 35 33 31 28 28 31 35 37 41 47 52 56 61 65 67 69 72 76 79 81 83 83 79 76 73 67
23 22 21 19 20 21 23 25 26 29 33 36 40 43 42 39 37 36 33 31 30 30 31 34 39 43 49 53 57 61 65 69 73 76 78 81 83 82 79 76 76 71 65 63
25 23 24 24 24 25 25 26 27 30 32 37 40 41 40 38 36 32 31 31 32 34 38 42 47 50 53 57 60 65 70 74 76 79 80 80 77 75 73 70 66 63 61 62
29 28 31 33 31 31 30 30 31 34 37 38 40 41 38 36 33 31 32 34 37 41 45 48 51 54 58 62 67 71 75 78 79 78 76 72 68 63 61 61 61 61 60 59
35 35 34 35 36 36 34 34 36 36 37 39 42 40 34 33 33 34 36 39 42 45 47 51 55 59 64 68 72 75 76 76 74 73 70 63 57 56 54 53 53 53 52 49
39 39 37 37 38 39 39 40 41 40 42 42 39 37 35 35 36 38 40 43 46 49 52 55 59 64 69 73 75 74 74 72 72 67 57 50 48 46 42 41 41 41 38 34
41 40 40 41 43 44 45 45 43 42 43 41 38 38 38 38 39 41 43 46 49 53 57 61 65 68 72 73 74 74 72 68 62 51 46 43 40 37 36 36 33 30 28 27
42 42 42 43 45 46 47 46 45 44 41 38 37 37 37 38 40 42 46 49 53 57 60 64 67 68 70 71 71 69 62 51 46 45 43 38 36 32 30 26 23 22 23 23
43 43 43 44 45 46 47 44 43 40 37 36 35 36 37 38 41 44 48 52 55 58 61 63 64 65 67 67 61 51 43 42 42 40 33 27 22 20 18 17 20 22 24 23
45 44 44 43 42 43 42 40 38 36 35 35 35 35 36 39 43 47 50 53 55 58 61 62 61 60 57 51 45 43 42 36 29 20 11 8 11 12 14 19 22 22 19 17
44 46 45 44 43 45 43 39 36 34 33 32 33 35 38 42 45 49 51 53 56 58 57 56 52 47 42 40 39 36 25 12 7 9 9 9 10 13 17 17 18 18 16 17
39 41 44 46 46 46 43 39 35 33 31 32 34 37 40 43 46 47 50 53 54 51 48 44 39 37 33 29 21 14 16 16 16 15 13 13 15 16 15 17 18 17 17 19
35 38 41 44 45 43 38 33 28 29 31 32 35 38 41 44 46 48 50 50 47 43 39 36 32 28 17 8 11 16 16 16 16 17 18 18 17 15 18 20 21 21 21 22
33 35 38 40 38 32 28 25 26 28 30 33 36 39 43 45 46 46 46 42 36 34 31 28 21 8 4 10 14 15 16 18 19 19 19 18 20 21 23 25 26 25 25 25
33 32 32 33 30 28 26 25 26 28 31 34 38 41 43 44 43 42 37 30 27 24 21 12 1 8 12 14 17 19 20 22 22 21 20 21 23 25 27 28 28 29 30 31
35 33 31 29 25 23 24 25 27 30 31 35 39 41 42 40 36 30 25 22 18 14 5 4 9 12 15 19 22 24 23 22 21 21 23 25 27 29 29 30 31 32 32 32
31 29 25 22 21 23 25 27 29 30 33 37 38 37 34 31 25 21 18 14 8 3 8 8 11 16 21 24 22 21 22 22 23 24 26 27 29 30 32 33 32 31 31 31
22 21 20 21 23 26 28 29 31 33 33 34 33 30 24 20 17 14 11 5 6 7 6 11 20 25 24 22 22 23 24 24 23 24 26 28 30 30 32 33 34 34 34 34

GEFSCGP_500_meanwind_006.txt.gz
Wind_Speed
23 24 25 27 25 24 22 21 21 22 22 21 23 23 22 20 18 20 23 24 25 24 24 26 28 29 32 34 34 33 32 31 35 34 29 30 31 33 35 39 42 45 48 51
25 27 29 28 24 23 22 21 22 23 22 23 24 24 24 24 22 21 23 25 24 25 28 29 30 31 33 35 36 36 35 35 36 36 35 36 37 38 41 43 45 47 50 53
26 29 29 26 24 22 22 22 22 24 24 24 24 23 24 25 27 26 26 26 27 29 31 32 33 34 34 35 37 38 38 38 38 39 42 42 44 47 47 47 48 50 55 59
28 29 28 26 24 22 23 23 24 24 22 19 21 15 25 23 24 26 27 28 30 32 33 34 35 36 35 36 38 39 40 42 43 45 47 48 51 51 51 52 55 59 62 66
28 29 28 26 24 23 24 24 24 24 23 22 22 16 22 24 23 25 26 28 30 32 33 34 35 36 37 39 40 41 43 45 46 47 49 51 53 54 56 59 63 66 69 71
27 27 27 26 24 23 24 24 25 25 22 21 20 17 18 23 22 24 26 27 29 32 34 36 37 39 40 41 42 43 44 46 47 49 51 53 56 59 62 65 68 71 74 76
26 27 26 25 24 24 24 23 23 21 21 19 23 20 22 24 23 25 26 28 31 33 36 38 40 41 42 42 42 42 42 44 46 49 52 56 59 63 67 70 73 76 78 80
28 27 27 25 24 24 23 22 21 20 18 18 27 23 26 24 25 26 28 30 32 34 35 36 36 37 37 37 37 39 42 45 49 53 57 61 64 67 71 74 78 81 83 84
27 25 28 25 24 25 24 24 22 23 23 22 23 27 25 24 26 27 28 29 31 32 31 30 30 31 32 34 37 41 45 50 54 58 62 66 69 72 77 80 83 85 85 84
29 27 28 26 26 26 26 24 26 26 24 24 22 25 25 25 26 30 32 33 34 32 31 30 31 33 36 39 43 47 51 55 59 63 67 71 75 79 82 84 85 84 81 76
32 30 30 30 29 26 26 26 26 24 23 23 21 24 31 29 31 33 35 36 35 33 33 35 36 39 42 45 49 53 57 61 65 70 74 78 81 83 84 84 81 75 66 58
35 33 31 34 32 29 29 28 26 25 26 26 25 30 34 33 34 37 39 39 37 37 38 39 40 43 46 50 53 58 62 68 72 77 80 83 83 83 79 73 64 54 46 44
39 38 38 41 37 34 32 29 26 26 27 30 28 32 35 34 38 40 42 41 40 40 41 42 44 47 50 54 58 63 68 73 77 80 81 80 76 69 60 51 43 39 38 37
43 43 43 41 35 34 33 30 28 28 30 32 33 36 36 39 41 43 43 42 42 42 43 45 47 50 53 58 62 67 71 75 77 75 70 63 54 45 39 34 32 31 30 29
45 46 46 44 40 39 38 36 35 34 35 35 38 39 38 41 43 43 43 42 42 43 44 46 48 52 56 61 65 68 69 67 62 55 46 39 32 28 26 24 23 23 24 26
47 48 46 45 44 42 43 42 40 39 37 37 38 40 40 42 42 42 42 41 42 43 44 46 50 54 58 62 64 62 55 47 39 33 28 23 20 19 18 18 19 21 23 24
46 46 45 46 45 43 45 44 41 39 38 38 40 40 40 41 40 40 41 41 41 42 43 47 52 56 60 61 57 46 35 28 26 23 21 19 17 17 18 20 22 24 25 26
40 40 41 42 41 42 47 41 40 39 39 39 40 39 39 40 40 40 40 40 40 41 45 50 54 58 59 53 41 28 21 20 19 19 20 20 20 21 23 24 26 27 28 29
37 37 37 37 37 41 39 37 36 37 38 38 38 38 38 39 38 39 38 38 39 42 47 52 55 55 49 37 24 16 15 16 17 19 21 23 24 25 26 27 28 29 30 30
37 36 36 35 35 37 35 34 35 36 38 36 36 37 36 35 36 37 35 36 39 44 49 52 50 43 31 20 12 10 12 14 16 19 22 25 26 28 29 31 32 32 32 32
40 38 37 34 33 35 32 32 33 35 35 34 34 33 33 33 32 32 34 37 41 46 48 44 36 26 16 8 6 7 10 13 16 20 23 26 28 30 33 35 36 36 34 33
38 35 35 34 33 31 30 31 31 32 32 32 31 30 30 29 29 31 34 38 42 44 40 31 21 11 4 2 3 6 9 13 18 21 24 27 30 33 36 38 38 36 32 30
40 37 34 33 32 30 29 28 27 28 28 28 27 27 26 26 27 31 35 39 40 36 27 17 8 2 2 3 4 7 11 15 19 23 27 30 34 37 39 40 38 34 29 28
27 30 29 24 23 25 26 25 25 25 25 26 25 23 22 24 28 31 35 36 31 22 13 6 4 5 7 5 6 9 13 17 21 24 28 32 36 38 40 40 38 33 28 27
15 17 20 21 21 23 24 25 25 24 24 23 21 21 23 26 29 32 33 27 19 10 5 6 9 10 8 7 9 12 15 18 21 25 29 33 36 39 41 41 39 33 28 27
19 21 23 24 24 24 24 24 24 23 21 19 19 22 24 26 29 30 25 16 8 5 9 11 12 11 9 9 10 12 15 18 21 25 29 33 36 40 41 42 39 34 29 29

GEFSCGP_500_meanwind_012.txt.gz
Wind_Speed
28 29 27 25 23 21 18 17 17 14 16 22 25 24 21 23 25 22 18 22 30 31 29 28 34 37 40 43 46 47 45 45 45 44 43 41 41 42 43 44 45 46 48 50
29 28 24 23 22 19 21 23 22 22 21 26 28 24 24 27 26 24 24 28 31 33 33 34 37 38 41 43 46 48 50 51 50 49 48 48 48 49 49 50 49 49 51 51
25 21 18 21 22 22 26 26 23 20 18 25 29 24 27 30 26 24 25 27 31 34 36 34 35 37 39 42 45 48 50 52 53 52 52 52 53 54 54 55 54 53 52 53
24 21 22 25 26 26 28 23 22 22 21 22 26 20 27 33 31 27 26 27 29 31 34 35 35 37 39 42 44 46 48 50 51 53 54 55 55 56 56 57 57 58 60 63
23 22 25 28 28 27 25 21 20 22 25 25 24 22 27 35 36 32 28 27 29 32 34 35 37 38 40 42 43 45 47 48 49 51 52 53 53 55 56 58 60 63 66 70
23 22 25 27 28 27 23 22 24 25 24 26 24 24 29 38 38 32 29 29 33 36 37 37 37 39 40 41 42 43 44 45 45 46 48 50 52 55 58 61 64 67 70 74
22 23 25 26 27 25 25 24 26 26 25 25 21 24 31 41 41 36 34 36 38 40 39 38 37 38 38 39 39 40 40 42 43 45 48 51 54 57 60 63 67 71 75 78
20 23 22 27 26 25 27 26 26 23 21 19 20 28 38 39 38 38 37 38 40 39 37 37 36 37 38 38 38 39 40 43 45 48 50 53 56 59 63 67 71 75 78 80
21 20 19 25 27 25 24 25 23 24 25 25 25 29 32 35 35 37 38 39 40 37 36 38 38 39 39 39 40 41 43 45 48 50 53 55 58 62 67 69 71 72 72 70
24 27 23 19 25 27 24 23 23 26 28 30 28 30 36 36 37 38 39 41 40 38 39 42 42 42 41 41 42 43 45 47 49 52 54 57 62 65 66 64 62 59 54 49
29 32 32 25 25 27 28 28 29 30 28 29 30 32 38 37 35 36 39 40 39 40 43 46 45 44 43 44 45 46 47 49 51 53 56 60 63 62 57 54 50 46 42 39
34 36 38 36 31 31 34 31 28 31 33 31 29 34 40 40 41 42 41 41 41 43 47 48 47 46 46 46 47 48 49 51 53 55 59 61 58 51 47 44 42 40 38 37
42 40 41 40 38 36 36 33 30 30 31 33 32 36 39 39 40 41 43 43 43 45 47 48 48 48 48 48 49 50 51 52 55 58 59 56 47 41 41 40 39 39 39 38
49 49 48 45 39 35 38 39 37 35 36 36 34 38 40 40 40 41 42 42 44 46 48 48 48 48 49 50 51 51 52 54 57 57 54 44 37 37 38 37 38 39 40 41
56 57 56 54 48 40 38 41 41 43 42 37 36 41 42 42 42 42 41 41 43 46 48 48 48 49 49 50 51 52 53 55 56 52 42 35 33 34 35 36 38 40 41 43
58 62 62 61 58 48 44 43 42 41 39 39 40 44 47 47 44 41 41 44 47 48 48 48 49 49 50 50 51 51 53 53 50 40 32 30 31 32 33 36 38 40 43 44
53 57 59 62 59 52 50 49 46 41 38 38 43 41 40 41 42 44 46 47 48 47 47 48 49 49 49 49 49 51 51 48 39 30 27 27 28 30 32 35 38 41 43 44
50 52 52 52 51 52 54 51 50 45 44 45 45 41 38 39 43 45 46 46 46 46 47 48 48 48 48 47 48 49 46 36 28 23 23 25 27 30 33 37 40 42 43 43
49 50 50 47 47 47 50 53 48 47 51 51 50 51 50 49 48 47 46 44 44 46 46 46 46 46 45 46 47 43 33 24 21 20 22 24 27 31 35 39 42 43 42 41
47 49 50 49 47 47 48 49 50 50 51 54 54 53 50 47 47 46 44 44 44 44 44 43 43 42 43 43 39 30 21 18 18 19 22 25 29 33 38 41 43 43 41 40
41 45 48 45 40 40 42 44 46 48 49 46 44 44 44 44 44 43 42 41 41 40 39 38 38 39 40 35 27 19 16 16 17 19 23 27 32 36 40 43 44 42 40 38
36 42 44 46 50 49 44 41 44 42 36 33 33 35 36 37 37 37 37 37 37 35 34 34 35 36 31 23 17 14 14 15 17 21 25 30 35 39 43 43 42 40 38 37
29 36 40 40 43 44 43 42 40 37 34 34 34 31 30 31 31 31 32 32 31 29 30 32 33 29 20 14 11 12 13 16 19 24 28 33 38 41 43 42 40 40 39 39
20 24 33 35 37 39 40 35 27 23 24 25 25 26 26 26 26 27 28 26 25 27 29 30 25 18 12 9 9 11 13 17 22 26 31 35 39 42 42 40 39 39 40 40
17 20 24 28 29 29 25 23 21 21 23 23 24 24 25 25 26 25 23 22 24 27 27 22 15 10 8 7 8 11 15 19 24 28 33 37 40 40 41 41 39 39 39 39
14 17 21 25 27 29 28 26 23 22 22 22 21 23 24 24 23 21 20 22 24 24 20 13 8 7 6 6 8 12 16 21 25 30 34 37 39 39 40 40 40 39 39 38

GEFSCGP_500_meanwind_018.txt.gz
Wind_Speed
33 33 29 26 27 25 25 24 22 20 16 15 17 21 23 26 28 30 31 33 34 34 34 33 33 33 34 35 37 39 39 39 39 39 38 38 38 38 39 40 40 41 42 43
36 33 27 29 30 28 26 26 24 23 18 16 17 17 21 27 31 33 34 35 35 33 32 31 32 33 34 35 37 38 38 39 39 39 39 40 40 41 42 43 43 44 46 47
34 29 30 31 31 28 26 25 25 25 23 21 21 21 23 29 33 35 37 36 33 30 29 30 32 32 33 34 36 37 37 38 39 40 41 42 43 44 44 45 47 48 50 52
32 29 31 32 31 29 25 21 23 26 28 27 27 28 29 33 36 37 37 33 30 29 30 32 33 32 33 34 35 35 37 39 40 42 43 45 46 47 48 50 51 53 55 57
27 25 29 31 29 27 24 21 23 26 29 31 33 35 35 38 39 38 35 32 31 32 33 34 34 33 33 34 35 36 38 40 43 45 47 48 50 51 53 55 56 58 60 61
25 25 28 29 28 27 23 23 26 30 33 35 32 37 41 41 40 38 36 35 34 35 36 37 36 35 36 37 38 38 40 43 46 48 50 52 53 55 56 58 59 61 62 64
24 25 26 27 29 28 27 28 29 33 35 34 30 36 40 41 42 41 40 39 38 39 40 41 40 40 40 40 41 42 43 46 48 51 53 54 56 57 58 60 61 62 63 64
26 26 24 25 25 25 27 29 31 32 32 30 30 35 35 36 39 39 39 39 39 40 41 42 43 44 42 43 44 44 46 48 50 53 55 56 57 58 60 61 62 62 63 62
26 26 24 26 24 25 26 29 30 32 32 31 32 33 34 33 34 35 36 36 35 36 36 38 40 40 42 43 45 46 47 49 52 55 56 57 58 60 61 62 62 62 61 58
29 29 26 27 29 29 29 28 30 34 35 36 36 36 36 35 34 34 35 35 35 34 34 34 36 38 41 43 45 46 47 50 54 56 58 59 61 62 63 62 61 59 56 50
36 36 30 31 33 30 29 30 32 34 36 37 36 35 33 37 39 40 40 40 39 38 38 38 38 40 42 44 44 46 49 52 56 58 60 62 63 63 62 60 59 55 48 42
39 39 37 34 36 34 32 30 30 34 35 36 37 35 33 35 38 41 42 42 42 42 41 41 40 41 43 43 44 47 50 54 58 61 63 64 63 62 61 59 53 46 41 38
43 44 43 39 36 37 38 35 32 31 33 36 39 40 37 38 40 41 42 43 44 44 43 42 41 41 41 42 44 48 52 56 59 62 64 63 62 60 57 52 45 39 38 38
50 49 49 47 43 41 43 44 41 38 38 40 41 42 41 41 40 41 42 43 45 46 45 43 41 41 40 41 46 51 55 59 62 63 62 61 58 56 51 44 39 38 38 40
55 56 55 54 52 49 47 47 47 47 46 45 44 43 43 44 44 43 43 43 42 42 42 39 37 37 39 43 48 53 58 60 61 60 59 57 54 51 44 39 38 38 40 43
54 60 62 61 59 58 55 52 51 52 52 52 51 49 47 47 48 46 44 44 43 42 39 34 34 36 42 47 52 56 58 59 58 57 55 53 49 44 39 38 39 41 44 47
45 51 58 62 63 64 63 58 55 55 55 56 56 54 51 49 50 49 46 45 44 43 40 37 37 42 46 50 53 55 56 55 54 52 51 48 42 38 38 39 41 44 47 50
42 44 49 54 58 64 62 61 61 61 59 59 59 59 58 56 54 53 51 48 47 46 41 40 42 45 48 50 51 52 52 51 50 49 46 41 37 37 38 41 44 47 50 52
43 43 45 47 51 54 54 55 55 56 58 59 61 63 64 61 59 57 54 51 48 43 43 44 45 46 47 48 49 49 49 47 47 44 39 35 35 37 40 43 46 49 51 51
39 41 42 44 47 49 47 47 46 46 48 50 52 55 56 57 57 55 51 49 44 41 41 41 42 43 45 45 45 45 44 44 41 36 33 34 36 39 42 45 47 48 49 50
32 36 39 41 44 44 44 43 42 42 42 40 40 41 43 45 45 43 43 39 36 36 36 36 38 40 41 41 40 41 41 38 33 31 32 34 37 40 43 45 46 47 48 48
27 30 34 37 40 40 40 41 41 39 37 36 36 36 34 34 35 36 36 34 32 30 31 33 35 36 36 37 37 37 34 31 29 30 32 35 38 41 42 43 44 46 46 46
23 25 27 31 33 34 35 35 35 35 33 32 30 26 26 26 26 26 26 25 25 26 28 30 32 32 33 34 33 31 27 26 27 30 33 36 38 40 41 42 44 44 44 44
18 19 22 23 23 23 23 23 23 24 25 24 21 20 21 20 20 20 19 20 22 25 27 28 28 29 30 29 26 23 22 25 28 31 34 36 37 38 40 41 41 41 41 40
14 14 15 16 15 11 10 12 14 13 14 15 15 15 14 14 14 15 17 18 21 23 24 24 25 26 25 21 19 19 22 25 28 32 35 36 37 38 39 39 39 39 38 37
9 8 7 6 6 4 6 8 8 8 10 9 9 10 10 11 12 13 15 17 19 20 21 22 22 20 17 15 16 19 22 26 29 32 34 35 36 37 37 36 36 37 37 34

GEFSCGP_500_meanwind_024.txt.gz
Wind_Speed
32 34 32 31 34 36 36 35 33 29 31 35 36 36 35 34 33 32 30 27 24 23 23 24 26 28 28 26 26 27 27 28 29 28 28 28 30 31 33 34 35 36 38 39
34 31 30 34 37 38 38 38 35 31 33 38 39 39 38 37 35 32 30 28 26 24 24 25 27 28 28 27 28 30 31 32 33 33 33 34 35 36 37 38 39 40 42 44
36 31 33 37 39 39 39 37 34 33 36 41 42 43 41 39 38 34 30 28 26 25 25 27 29 29 29 29 31 33 35 36 38 39 39 40 40 40 40 41 43 44 45 48
33 32 34 37 39 39 39 36 36 36 39 42 44 46 43 42 40 36 31 28 26 26 28 31 32 32 31 32 34 36 39 41 42 43 43 44 43 42 42 44 45 46 48 51
30 28 32 36 36 38 36 35 39 40 42 44 45 48 47 44 41 36 32 30 29 30 31 33 34 34 34 35 37 39 42 43 44 45 46 46 45 44 45 46 47 49 52 55
31 29 32 33 34 37 36 37 40 41 42 45 43 47 49 45 41 37 34 33 33 34 35 35 35 35 36 37 39 40 43 44 45 46 46 45 46 46 47 48 50 53 56 59
31 30 30 31 32 34 35 35 38 41 42 43 40 45 46 42 39 37 36 36 37 37 37 37 37 36 36 38 39 41 43 44 45 45 45 46 48 49 49 50 53 56 59 62
34 31 28 29 29 29 32 34 37 40 41 41 40 43 41 38 37 37 36 36 37 37 37 37 36 36 36 37 39 41 43 44 44 46 47 48 50 50 50 51 55 58 61 63
33 31 27 28 27 29 31 35 36 39 40 42 42 42 40 37 35 34 34 34 34 34 34 35 34 34 35 37 40 42 45 46 47 47 48 50 50 50 50 54 58 61 62 62
35 33 28 28 28 27 30 33 37 39 41 43 43 42 39 35 33 33 33 33 33 34 34 34 34 35 37 40 43 45 48 49 50 50 50 50 49 50 54 58 60 61 61 58
38 36 31 30 29 26 27 31 35 39 42 44 46 43 38 35 33 33 33 33 34 34 36 37 38 39 41 43 45 46 49 52 53 52 50 49 50 52 56 59 59 58 56 55
41 39 36 33 31 30 31 32 35 38 41 44 47 45 39 37 35 34 33 34 35 35 35 35 38 41 43 45 47 48 51 52 52 51 49 48 50 53 56 56 55 54 53 53
44 43 41 37 35 35 34 36 37 40 42 44 46 45 40 38 37 36 35 36 36 37 38 39 41 43 44 46 48 49 50 50 51 50 48 51 52 53 53 52 52 52 51 50
47 46 45 43 41 40 39 38 39 41 43 46 47 46 43 42 40 39 39 38 38 39 41 42 43 45 47 49 50 49 49 49 49 49 51 52 51 49 49 50 50 50 48 46
51 51 51 50 49 47 45 44 44 44 45 47 47 48 48 47 47 46 45 44 43 43 44 45 46 47 49 50 50 49 50 49 50 51 50 49 48 48 48 49 49 47 45 45
53 56 56 56 55 55 53 50 49 49 49 50 49 49 48 49 49 49 48 48 48 48 49 49 49 49 50 50 50 50 49 49 49 49 48 47 47 48 48 48 46 45 45 46
49 53 57 58 59 59 58 55 55 56 56 57 57 55 54 53 52 52 51 50 50 51 51 51 51 52 51 51 50 48 48 48 47 47 46 46 47 47 47 45 44 44 46 48
41 45 49 53 55 58 56 56 56 56 56 57 58 58 58 58 56 56 56 55 54 54 54 54 54 54 53 51 48 48 47 46 45 45 45 46 46 45 44 43 44 46 48 50
39 41 44 46 49 51 51 53 53 54 53 51 51 52 54 54 55 56 55 55 55 55 55 54 53 50 49 46 44 43 43 44 43 44 45 45 44 43 42 43 46 48 50 50
37 40 42 44 47 49 49 50 50 51 49 46 46 46 46 47 49 48 48 48 49 49 49 48 46 44 44 42 39 39 40 41 42 43 42 42 41 41 43 45 47 48 48 48
32 34 35 37 40 43 44 45 46 45 44 42 41 42 42 43 43 43 43 42 42 42 41 40 39 39 37 34 34 35 37 39 40 39 39 38 39 42 44 46 46 46 46 46
28 29 30 31 32 33 35 36 38 39 38 36 36 36 36 37 37 37 37 37 35 35 35 35 34 31 30 29 31 33 35 36 36 35 36 38 41 43 44 44 44 43 43 43
26 26 27 27 27 28 29 30 31 32 31 30 30 31 31 30 30 29 29 29 29 27 26 25 24 23 24 26 29 31 32 32 32 33 35 39 41 42 42 41 41 40 40 40
24 24 24 24 24 25 26 27 28 28 27 25 24 23 23 22 21 22 22 22 22 20 18 18 18 19 22 25 27 28 28 29 30 33 36 39 39 40 39 38 38 37 37 37
21 21 21 21 22 22 21 21 21 20 19 18 16 15 16 16 16 16 15 15 14 13 13 13 15 18 21 23 24 24 25 27 31 34 36 37 38 37 37 36 35 34 34 33
16 16 16 15 15 15 14 13 13 12 12 13 14 14 14 13 12 12 10 9 8 8 9 12 15 17 18 19 19 21 24 28 31 33 35 35 36 35 35 34 33 32 31 31

GEFSCGP_500_meanwind_030.txt.gz
Wind_Speed
29 28 27 27 30 34 38 37 37 38 41 38 42 43 42 40 38 37 36 34 33 32 30 29 29 29 29 29 29 27 26 25 25 24 23 23 24 25 26 27 28 29 31 32
28 27 27 30 31 33 35 36 37 38 40 41 45 46 45 44 42 40 39 37 36 34 32 31 31 32 32 32 33 32 30 30 29 28 27 27 27 28 29 30 31 32 34 35
26 27 29 30 32 33 35 35 35 37 40 42 45 46 46 46 44 43 42 40 38 36 34 33 33 34 35 35 35 35 35 35 33 31 31 31 32 33 32 33 34 36 37 38
23 24 26 29 31 33 34 34 35 36 39 40 44 44 41 46 43 41 41 40 39 38 36 34 34 35 36 37 37 38 38 37 36 34 34 34 35 35 36 38 39 40 41 42
21 23 25 27 29 32 34 35 36 37 39 41 44 44 39 45 43 39 38 38 39 38 38 36 35 37 39 39 40 40 40 40 38 37 37 38 38 39 40 42 44 46 46 47
23 23 24 25 27 29 31 33 35 37 39 42 41 42 39 38 41 37 37 37 37 38 38 38 38 39 40 41 41 42 42 41 40 40 40 40 41 42 45 47 49 50 50 51
24 24 24 25 27 28 29 30 32 34 36 37 35 40 38 36 38 36 35 35 35 36 36 37 37 37 39 40 41 41 41 40 41 41 42 42 42 44 47 48 49 51 53 54
27 27 26 26 26 28 29 30 31 31 28 26 29 34 32 36 36 34 33 32 32 33 33 33 33 34 35 37 38 39 39 40 40 41 41 42 44 46 46 47 50 51 53 54
30 28 27 26 27 28 28 29 30 32 33 33 33 32 33 35 32 31 30 30 30 31 31 30 30 31 32 33 34 35 37 38 39 40 41 42 43 45 47 50 52 53 55 53
32 30 28 27 28 29 28 28 30 32 33 33 32 29 27 27 26 27 28 28 28 28 28 28 28 29 30 32 33 35 36 38 39 40 42 43 45 47 50 51 53 53 52 52
35 33 31 29 29 28 29 30 30 30 30 29 29 26 25 28 27 27 27 27 28 28 27 27 28 29 30 31 33 35 36 37 39 41 43 45 46 49 50 51 52 51 51 52
38 36 34 32 31 30 31 31 31 32 31 31 31 28 28 32 30 29 28 29 29 29 29 29 30 31 32 33 35 37 38 39 41 43 45 47 49 51 53 52 51 51 52 52
41 39 37 34 32 34 36 36 35 36 35 34 33 29 30 33 31 30 31 31 31 31 32 32 34 35 36 37 38 40 41 42 44 46 48 51 52 53 52 52 52 52 52 51
42 42 40 35 30 38 38 38 38 39 37 36 35 32 32 36 35 34 34 34 34 34 35 36 37 38 38 40 42 43 44 47 49 50 51 52 53 52 52 53 52 52 51 51
43 43 43 43 43 44 42 41 41 41 41 41 40 39 39 41 39 37 37 38 38 38 39 40 41 43 44 45 46 48 49 50 51 51 52 53 53 53 53 53 51 50 50 50
43 44 44 44 44 44 44 43 43 43 43 44 44 44 45 45 42 42 42 43 43 44 45 46 46 47 48 49 50 51 51 51 51 50 50 52 55 55 53 50 47 47 48 48
41 42 43 44 45 44 45 45 45 44 45 46 48 49 49 47 47 47 47 47 48 48 49 49 49 49 49 50 50 50 49 49 49 49 52 55 56 53 48 46 46 46 46 46
38 39 41 42 43 43 45 44 42 42 45 46 48 49 49 49 49 49 49 49 49 49 48 48 47 47 47 47 47 47 47 49 50 51 54 55 52 47 44 43 44 44 44 46
34 35 36 38 39 40 42 41 39 40 42 43 44 46 47 47 48 48 48 48 47 46 45 43 42 42 42 42 42 43 45 49 52 54 54 49 44 41 41 41 42 43 45 47
29 30 32 33 35 36 40 37 37 38 39 39 40 41 42 42 44 45 44 44 43 42 41 40 39 38 38 39 40 41 45 50 51 49 44 41 39 39 39 40 42 44 46 47
26 27 29 30 32 34 36 34 34 35 35 35 35 36 37 38 39 40 40 40 39 39 38 36 36 35 35 37 40 43 46 47 43 39 37 37 37 38 39 41 43 45 46 46
23 24 26 27 29 32 33 32 33 32 32 31 32 32 33 33 33 34 34 34 34 33 32 31 31 32 34 37 39 40 40 37 35 34 34 35 36 38 40 42 43 44 44 43
21 22 24 26 28 30 30 30 30 29 28 28 28 28 28 28 27 27 27 27 26 26 26 27 28 29 32 34 33 32 30 29 30 31 33 35 37 40 41 42 43 43 42 39
20 21 23 24 26 27 28 28 27 26 25 25 24 24 24 23 22 21 21 21 21 22 23 24 25 27 27 25 23 24 25 26 28 30 33 36 38 40 41 42 42 40 37 34
19 20 21 22 23 24 24 23 22 21 20 19 17 17 17 17 17 16 16 16 17 19 21 21 19 16 15 16 19 21 23 25 29 32 35 37 39 41 41 40 38 35 30 26
16 15 15 15 16 17 16 15 15 14 13 11 11 10 10 10 11 11 13 14 13 13 11 9 9 11 13 15 18 20 24 27 30 33 35 38 39 40 38 36 32 27 23 21

GEFSCGP_500_meanwind_036.txt.gz
Wind_Speed
28 29 28 26 26 24 24 22 20 20 18 23 29 31 29 25 30 32 32 32 32 31 35 35 36 34 31 31 31 31 32 33 34 36 37 37 38 39 39 39 40 38 37 37
30 28 24 25 26 26 26 27 26 25 23 25 31 35 35 32 31 33 35 35 35 34 37 40 38 40 37 35 33 33 35 35 37 39 40 41 42 43 43 43 42 41 39 38
26 21 22 26 26 25 26 28 29 29 28 30 32 36 39 39 36 35 38 41 40 38 40 44 44 43 41 38 35 35 36 37 39 41 43 44 44 44 45 45 45 43 40 38
23 21 21 23 24 25 27 27 29 31 31 33 33 36 36 35 32 31 34 38 39 37 38 42 43 42 40 38 37 36 37 38 40 42 44 46 47 47 46 47 46 44 42 42
21 20 22 22 22 23 25 23 24 25 29 33 34 36 35 30 29 29 30 35 37 36 36 38 39 38 38 38 37 37 37 39 41 43 45 47 48 48 47 47 46 45 43 42
22 20 21 21 20 21 21 21 23 25 26 31 29 30 33 28 28 27 27 31 34 34 35 35 35 34 35 36 36 36 38 40 41 43 44 46 47 47 47 47 46 46 45 44
23 22 21 21 20 20 20 20 20 21 22 23 18 22 24 20 21 24 26 31 34 34 35 37 36 34 34 34 35 36 37 39 41 42 44 45 46 46 47 47 46 46 46 45
23 23 23 23 21 20 21 20 19 19 17 17 15 17 17 18 21 25 30 34 36 37 37 37 36 34 34 33 34 36 37 39 41 42 43 44 45 46 46 46 47 47 47 47
23 20 20 23 24 22 22 22 19 20 21 23 22 21 19 20 23 26 29 30 31 32 30 31 32 33 32 33 34 36 37 38 40 41 43 44 45 45 45 46 47 47 48 49
28 26 21 20 24 25 23 21 22 23 24 25 24 21 19 20 22 24 24 25 26 28 27 30 31 31 31 33 34 35 36 37 39 41 42 44 45 45 46 46 46 48 50 52
33 32 26 20 23 25 24 23 24 25 24 24 23 19 18 23 24 26 24 25 28 30 33 34 32 32 32 33 34 35 37 38 40 42 43 45 46 46 47 48 49 51 53 55
34 35 34 29 24 24 25 24 23 26 27 27 27 26 24 27 26 26 28 32 37 40 40 37 35 34 33 34 36 37 39 40 41 42 44 46 47 48 49 51 53 55 56 57
38 39 38 34 29 27 26 26 26 27 28 28 27 25 24 30 31 31 34 39 42 41 37 34 34 34 36 37 39 40 41 42 43 45 47 49 50 51 53 54 56 57 58 59
38 40 39 34 26 27 31 31 30 30 30 30 29 28 30 33 34 34 37 39 37 34 32 33 36 39 40 41 42 43 45 46 48 49 50 52 52 54 55 57 58 60 61 62
39 41 41 40 37 34 31 30 31 32 33 33 32 30 32 36 37 39 41 42 42 41 42 43 44 45 46 47 47 47 49 50 51 52 53 53 54 55 56 57 59 61 63 65
39 40 41 42 40 40 40 37 34 33 32 33 34 35 42 47 47 46 48 49 51 51 52 52 51 51 50 50 50 50 51 52 52 53 53 53 54 55 57 59 60 62 64 63
37 38 38 39 38 39 42 41 41 42 41 40 41 46 51 51 50 49 50 52 53 54 54 54 53 52 51 51 50 50 50 50 51 51 52 52 53 55 57 58 61 62 62 60
35 36 37 37 37 39 37 37 40 42 45 47 49 50 50 49 47 47 48 50 51 52 52 52 52 51 50 49 49 48 48 48 49 50 51 51 53 55 56 58 60 59 58 54
34 34 35 36 36 35 32 36 39 41 45 46 46 46 45 45 46 47 47 48 48 49 49 49 49 48 47 46 46 45 45 46 47 48 49 51 53 54 55 57 56 54 52 50
30 31 32 33 33 32 35 37 38 38 41 42 41 41 40 41 43 44 44 45 45 45 45 45 45 45 44 43 43 43 43 44 45 47 48 50 53 54 54 53 50 47 46 46
23 25 27 29 30 32 35 36 36 39 41 41 40 39 38 39 40 41 41 42 42 42 42 41 41 40 40 39 39 39 40 42 44 46 48 49 49 49 47 45 44 45 45 46
24 24 25 26 28 33 34 34 36 37 37 38 38 38 37 37 37 38 38 39 39 38 37 36 36 35 34 33 34 35 38 40 42 43 43 43 42 42 41 41 42 44 45 45
24 25 26 27 28 29 30 32 33 34 35 35 36 36 36 35 35 35 35 35 34 33 32 31 30 29 29 30 31 33 35 37 37 37 36 36 37 38 40 41 42 42 41 39
21 21 23 26 29 29 29 30 32 32 33 33 33 33 33 32 32 31 30 29 28 27 26 25 25 25 26 27 29 31 32 32 31 32 34 35 36 37 38 39 38 36 34 30
19 19 21 24 26 27 28 29 29 30 30 30 29 29 27 27 26 25 23 22 21 20 20 21 22 23 24 25 25 25 26 27 30 32 34 35 36 36 35 34 32 29 26 23
18 19 20 21 22 24 24 25 25 24 24 23 22 21 21 19 17 16 16 15 15 15 15 16 17 18 18 20 21 23 25 28 30 32 33 34 34 32 30 27 24 22 19 17

GEFSCGP_500_meanwind_042.txt.gz
Wind_Speed
34 34 32 29 28 28 30 32 31 28 26 27 26 23 21 23 28 29 28 28 30 32 34 35 35 34 34 34 33 32 32 34 36 36 35 35 35 34 34 33 34 35 35 36
34 32 28 29 31 31 32 33 31 28 29 30 29 28 26 25 27 28 28 30 32 33 35 36 36 37 36 35 35 35 36 38 39 38 36 37 38 37 36 36 36 38 39 40
31 26 28 31 32 31 31 31 29 28 28 31 32 32 28 27 27 28 29 31 33 35 35 36 37 37 36 36 36 37 39 41 42 41 39 38 38 38 38 38 38 40 40 41
31 29 31 32 33 31 28 27 27 28 30 31 32 34 28 27 28 28 29 31 33 35 36 37 36 35 35 36 37 38 41 42 41 40 40 41 39 39 39 39 40 41 41 41
29 29 31 30 29 28 25 23 24 26 30 32 33 35 30 29 31 31 31 33 34 36 36 35 34 33 34 36 38 40 43 42 40 41 41 39 39 39 40 40 41 42 42 42
27 30 32 29 27 24 21 21 24 27 30 31 28 31 29 25 29 33 36 37 37 36 35 34 33 33 35 38 40 42 44 43 42 42 40 39 39 39 41 41 42 43 43 44
27 30 32 31 28 24 22 23 25 28 28 25 20 25 22 20 25 30 33 35 35 34 32 32 32 34 36 40 43 45 44 44 43 43 41 39 39 40 41 43 44 45 45 45
26 28 28 28 26 23 23 24 25 24 23 20 19 19 16 18 22 24 25 25 27 28 29 29 31 35 39 42 44 44 44 43 43 42 40 39 41 41 43 45 46 47 47 47
25 24 26 25 22 21 21 22 21 21 21 20 20 19 17 18 19 21 21 22 23 25 28 31 34 37 40 42 44 45 45 43 40 40 39 40 41 43 45 47 48 49 50 51
22 24 27 26 25 25 22 20 22 23 22 21 21 19 20 21 22 23 24 25 26 28 31 33 36 39 41 43 45 44 42 40 39 39 40 41 43 46 48 50 51 52 53 53
24 26 28 28 27 27 27 26 25 24 24 24 23 22 23 24 26 28 29 30 31 32 34 36 38 40 42 44 44 43 41 39 38 40 41 43 45 48 50 53 54 55 56 57
27 28 30 30 26 25 28 29 28 28 26 25 25 26 28 29 30 30 30 32 33 35 37 38 40 42 44 44 43 42 41 41 41 42 44 47 49 52 54 56 57 59 60 61
30 31 31 31 30 28 27 29 31 30 29 28 28 30 31 32 33 33 34 35 36 38 40 41 42 43 43 43 44 46 46 45 46 49 51 52 54 55 57 58 59 60 61 62
33 34 33 34 35 33 30 30 31 31 32 33 33 34 34 36 36 36 37 38 40 41 41 42 42 43 44 46 48 51 52 52 54 55 55 56 57 57 57 58 59 60 60 60
34 35 36 35 36 37 36 35 34 34 34 36 37 37 39 40 41 41 42 43 44 44 44 43 44 45 48 51 55 57 58 58 58 57 57 56 55 55 55 56 56 57 57 57
37 37 36 36 37 38 39 39 39 39 38 39 41 43 45 45 45 45 46 46 46 47 47 46 48 52 55 57 58 59 59 59 58 57 56 55 54 53 53 53 53 54 54 55
40 39 38 39 40 41 43 44 44 44 44 45 46 47 48 49 48 47 46 46 47 49 50 53 56 57 58 58 58 58 57 57 57 56 54 53 52 51 50 50 51 52 52 53
39 39 38 38 36 36 39 41 43 45 47 48 49 50 50 50 49 49 50 51 52 54 55 55 56 56 56 56 56 56 55 54 53 51 50 49 47 47 48 48 48 49 49 50
34 35 35 35 36 35 35 37 39 41 43 45 47 49 50 51 51 51 51 51 52 52 53 53 53 53 53 53 52 52 51 50 48 47 45 44 44 44 44 45 46 47 47 48
29 30 31 32 32 32 33 33 35 37 39 41 42 44 45 46 47 47 48 49 49 50 50 51 51 50 50 50 49 48 47 45 44 42 41 41 41 42 43 44 45 46 46 46
24 26 26 27 28 28 29 29 31 33 36 37 39 40 42 43 44 45 46 46 46 47 47 47 47 47 46 46 44 43 41 40 39 38 38 39 40 41 42 42 43 43 42 42
19 21 21 21 21 22 23 24 26 29 31 33 35 37 39 40 41 43 43 43 43 43 43 43 42 42 41 39 38 37 36 35 35 36 36 38 38 39 39 39 40 40 40 40
17 16 16 18 19 20 21 23 24 26 27 29 31 34 35 37 38 39 39 39 39 38 38 38 37 36 34 33 32 32 32 32 33 34 35 36 37 38 38 38 38 38 37 35
17 17 17 18 19 20 21 22 23 24 25 26 28 30 31 32 33 33 33 33 33 33 32 31 30 29 29 29 29 28 29 31 32 33 34 35 36 36 37 36 35 34 32 30
15 16 16 17 18 19 20 21 23 24 25 26 26 27 28 29 29 29 28 27 27 26 25 24 24 24 24 24 25 27 28 30 31 32 34 34 35 34 34 32 30 27 25 23
14 15 16 16 17 18 19 20 21 22 22 23 23 23 23 23 23 22 22 22 21 19 19 18 19 19 20 22 24 26 29 30 32 33 33 33 32 30 28 25 23 21 20 18

GEFSCGP_500_meanwind_048.txt.gz
Wind_Speed
39 38 36 34 33 33 33 34 35 36 39 40 39 36 34 35 35 34 33 31 29 28 26 25 23 21 21 21 21 23 25 28 29 31 32 33 32 31 30 29 28 28 29 29
39 38 35 35 36 35 35 35 34 34 39 43 43 40 37 36 37 37 35 33 31 29 28 27 25 23 22 22 23 25 27 29 32 34 35 35 35 34 33 31 27 27 28 28
39 36 35 36 36 35 35 34 33 34 38 42 43 43 40 39 39 37 36 34 32 30 29 28 28 26 25 24 26 27 30 32 35 36 37 38 36 34 34 29 27 27 27 28
39 37 36 36 36 36 34 32 32 33 36 39 42 43 40 39 38 37 36 35 33 32 31 30 30 28 28 27 29 31 33 36 37 37 38 40 38 37 35 31 29 28 28 28
37 35 36 36 34 34 31 31 32 34 36 38 40 41 38 36 37 36 36 36 35 34 33 32 32 31 31 31 32 34 36 38 38 39 40 41 40 39 35 32 31 30 30 31
35 35 35 35 34 33 32 33 34 35 36 37 36 38 38 35 35 36 37 37 36 36 35 34 34 34 34 34 35 38 39 41 41 43 43 42 41 38 37 36 35 33 34 35
33 34 34 35 35 34 33 33 34 34 35 34 32 35 36 35 35 36 36 36 36 36 36 36 35 36 36 36 38 40 41 42 43 43 43 43 42 40 39 39 38 37 38 39
28 29 31 32 32 31 31 32 33 32 31 30 30 33 33 34 34 34 35 35 35 35 35 35 35 36 37 38 39 39 40 41 42 41 42 41 41 40 39 39 40 41 42 44
22 23 25 27 28 29 31 32 30 30 29 28 29 31 32 32 32 32 32 33 33 33 33 33 34 34 35 35 36 37 39 39 40 41 42 42 43 42 42 43 43 44 47 49
20 20 22 24 28 30 31 32 30 30 29 28 28 28 28 29 29 30 30 30 31 31 31 31 31 31 32 33 34 36 38 39 41 42 43 44 44 44 45 46 48 49 52 54
20 21 21 24 29 31 32 32 32 31 29 28 27 26 26 27 28 29 30 30 30 30 30 30 30 31 33 34 36 37 40 41 43 44 45 47 47 48 49 50 52 54 56 58
20 20 22 25 29 32 33 33 32 31 29 28 27 26 26 26 27 28 29 30 31 31 32 32 32 33 35 37 38 40 42 44 45 47 49 51 52 53 54 55 56 58 59 60
21 21 22 25 29 32 34 34 32 31 31 30 29 29 28 29 29 30 31 32 33 33 34 34 35 37 38 40 42 43 45 47 49 50 52 54 55 57 58 59 59 60 60 60
23 24 24 26 28 30 32 33 33 33 33 33 32 32 32 33 33 34 34 34 35 35 36 37 38 39 41 42 44 46 48 50 52 54 55 57 58 59 60 60 60 60 60 59
26 27 27 28 29 31 32 33 34 35 36 36 36 36 36 37 37 38 38 38 38 38 39 39 40 42 44 46 48 50 51 52 55 57 58 59 60 60 60 59 59 59 58 58
28 29 30 30 32 33 34 35 36 37 37 37 38 39 40 40 39 39 39 39 40 40 41 42 43 45 47 49 51 52 54 56 57 58 58 58 58 58 58 58 58 57 57 56
30 30 31 33 34 35 35 35 36 37 38 38 37 37 39 40 40 40 41 41 42 42 42 44 46 48 50 52 54 56 56 57 57 57 57 56 56 56 56 56 55 54 53 52
29 31 32 32 34 36 35 35 35 35 35 35 36 36 37 37 38 38 39 39 40 42 43 45 47 49 51 53 54 55 55 55 55 55 55 54 54 53 53 51 50 49 49 48
26 28 30 31 33 33 34 34 34 34 35 35 36 36 36 36 37 38 39 40 42 43 44 46 47 49 51 52 52 53 53 53 53 53 52 51 50 49 48 47 46 46 45 45
22 24 26 27 28 29 30 30 31 32 33 33 34 34 35 36 37 37 38 39 40 42 44 45 47 49 49 50 51 51 51 50 49 48 47 46 45 45 44 44 43 43 43 43
19 20 21 22 23 25 25 26 26 27 28 30 31 33 34 35 36 37 38 39 41 42 43 45 46 46 47 47 47 47 47 46 45 44 43 42 41 41 41 41 42 42 42 43
16 17 18 18 20 21 22 22 23 24 25 26 28 29 31 32 34 35 36 37 38 40 41 42 43 43 43 43 42 42 41 40 40 39 38 38 39 39 40 40 40 41 41 41
14 14 15 16 17 16 17 19 20 21 22 23 25 26 27 29 31 32 33 34 35 36 37 38 38 38 37 37 37 36 36 35 35 35 36 36 37 38 38 39 39 39 38 37
13 13 13 14 15 16 15 16 18 19 20 22 24 25 26 28 29 30 31 31 31 32 32 32 32 32 32 31 31 31 31 31 32 33 35 36 37 38 38 37 36 35 32 30
12 12 12 12 13 13 14 15 17 18 19 21 23 24 25 25 26 27 27 27 27 27 26 26 26 26 26 26 26 28 29 31 32 34 35 36 36 35 34 32 30 28 26 23
12 11 11 11 12 12 13 15 16 17 18 19 20 21 22 22 23 23 22 21 21 21 21 21 20 21 22 23 25 27 29 31 33 34 34 34 32 30 28 26 24 21 20 18

GEFSCGP_500_meanwind_054.txt.gz
Wind_Speed
36 34 32 31 31 31 31 31 32 33 33 32 33 33 32 31 29 28 27 27 25 23 23 23 24 26 27 27 27 27 26 25 26 27 28 30 32 34 36 35 35 33 33 33
38 36 34 33 33 33 32 32 33 34 35 35 36 35 35 34 33 32 31 30 29 28 27 27 27 28 29 30 30 30 29 29 30 31 32 33 36 37 38 38 36 35 33 31
36 36 35 34 34 33 33 33 33 34 36 36 37 36 37 37 37 36 35 34 33 32 31 30 30 30 30 31 32 32 31 31 33 34 35 35 37 39 41 41 39 37 33 28
36 37 35 35 35 34 33 33 34 35 36 37 39 37 37 39 39 38 38 37 37 36 34 34 33 31 31 32 32 33 33 33 35 36 36 37 39 41 42 42 40 37 31 29
34 35 35 35 34 33 33 33 34 35 36 38 39 38 35 38 39 39 39 39 39 38 36 35 34 33 33 33 33 34 35 35 36 37 38 39 41 42 42 41 39 35 32 29
33 33 33 33 33 33 33 34 34 35 36 38 37 37 35 37 38 39 40 39 39 38 37 36 35 34 34 35 35 36 37 38 39 39 40 41 42 42 42 40 39 38 34 32
29 30 31 31 32 32 33 32 32 32 34 33 34 36 35 40 37 37 38 38 38 37 36 35 35 35 35 36 37 37 38 39 40 41 42 42 42 42 42 41 40 38 36 35
22 23 27 28 28 29 30 30 29 25 23 24 31 32 37 37 35 34 34 35 35 35 34 34 34 34 35 35 35 36 37 39 40 41 42 42 42 41 40 41 40 40 39 39
15 16 22 25 26 27 28 29 27 28 26 23 22 31 35 33 32 31 31 31 30 30 30 30 30 31 31 32 33 35 36 38 39 40 41 42 42 41 41 41 41 41 42 43
14 14 16 20 24 26 26 25 28 30 27 23 22 24 27 30 28 27 27 27 27 27 27 27 27 28 29 30 32 33 35 37 38 40 41 42 42 42 42 43 43 44 46 47
14 14 14 17 20 21 25 27 28 27 25 22 19 21 27 27 26 25 25 25 25 25 25 26 27 27 29 30 32 33 35 36 38 39 40 41 42 42 44 45 47 48 50 51
13 14 15 16 19 21 23 24 26 26 26 26 21 23 26 25 24 24 24 24 24 24 24 25 27 28 29 31 33 34 35 37 38 39 40 42 43 45 46 48 50 51 53 55
13 14 14 15 18 22 24 25 26 27 26 25 23 26 27 25 25 25 25 25 26 26 27 28 29 30 32 33 35 36 38 39 40 41 43 44 46 47 49 51 53 55 56 56
14 15 15 16 18 20 23 25 26 26 24 25 26 29 29 28 27 28 28 28 29 30 31 32 33 34 35 36 38 39 40 42 43 44 45 47 49 51 53 54 55 56 57 57
14 16 18 20 20 21 22 24 26 27 28 28 29 31 31 31 31 31 31 32 33 34 34 35 36 37 38 39 41 42 43 44 46 47 48 49 51 52 54 55 56 57 57 58
14 15 17 19 21 23 24 25 26 28 29 30 31 33 33 33 33 33 34 35 36 37 38 39 40 40 41 42 43 44 45 45 46 47 49 50 52 53 55 56 56 56 57 56
15 16 17 19 21 23 25 27 27 28 30 31 32 34 34 35 35 35 36 37 37 38 39 38 40 40 41 42 42 43 43 45 46 48 49 51 53 54 55 55 55 55 55 54
13 15 17 19 19 22 26 26 27 29 30 32 33 34 34 34 35 35 35 35 35 35 37 38 38 39 40 41 42 43 44 45 47 49 50 52 53 53 53 53 53 52 51 50
11 13 15 17 19 22 23 25 26 28 30 31 32 33 33 33 34 33 34 35 35 35 36 36 37 38 40 41 42 43 45 46 48 49 50 50 50 51 51 50 49 49 48 48
10 10 12 14 16 19 20 20 22 24 27 27 28 29 29 30 31 31 31 32 34 34 35 36 37 39 40 41 42 44 45 46 47 47 48 48 48 48 47 47 46 46 46 46
9 9 10 12 14 16 16 17 18 21 24 23 24 26 27 28 29 30 30 32 33 34 35 36 37 38 39 40 42 42 43 44 44 44 45 44 44 44 44 44 44 44 44 44
10 9 10 10 12 14 14 14 16 19 20 21 22 23 24 25 27 28 29 30 31 32 33 34 35 36 37 38 39 40 40 41 41 41 41 41 41 42 42 42 42 43 43 43
10 10 10 11 12 13 13 14 15 16 17 19 20 21 22 23 25 26 27 28 29 30 31 32 33 34 35 36 37 37 37 37 37 38 39 39 40 41 41 42 41 41 40 38
11 10 10 10 11 12 13 13 14 15 17 18 19 21 22 23 24 25 26 27 28 29 30 30 31 32 33 33 34 34 34 34 35 36 37 39 40 40 40 39 37 35 33 31
10 9 9 10 10 11 12 12 13 13 14 16 18 20 20 21 22 22 23 24 25 25 26 27 28 28 29 29 29 30 32 33 34 36 37 38 37 36 34 32 29 27 25 23
10 9 9 10 11 11 12 12 13 14 15 15 17 17 18 19 19 20 20 20 20 21 21 22 23 23 24 26 27 29 31 32 33 34 33 33 31 29 26 24 21 19 18 16

GEFSCGP_500_meanwind_060.txt.gz
Wind_Speed
31 31 30 28 25 24 20 17 17 15 18 24 22 18 19 19 21 22 20 20 22 23 25 26 27 27 24 22 21 22 23 24 25 27 28 29 29 30 30 30 31 32 33 33
30 30 29 29 27 25 26 24 21 19 22 27 26 23 23 23 23 23 22 24 26 28 28 26 27 29 26 24 24 25 26 27 28 29 30 31 32 32 32 33 33 34 34 35
29 27 28 31 31 28 28 27 24 21 23 28 28 25 25 27 28 27 27 28 28 29 29 29 30 30 30 28 27 27 29 30 31 32 32 33 34 35 35 35 36 37 38 37
27 26 26 29 30 30 29 28 27 27 27 26 26 26 24 25 28 30 31 30 29 31 32 32 33 33 32 32 30 30 32 32 33 34 34 35 36 37 37 38 39 40 40 39
25 25 26 28 29 29 30 27 27 27 29 30 28 26 21 20 26 29 30 31 32 33 33 34 34 36 35 36 35 34 34 34 35 35 36 37 38 39 40 41 42 42 42 41
21 22 25 27 27 28 28 28 27 27 28 31 28 27 22 21 26 29 31 31 32 33 34 34 35 36 37 38 37 36 35 35 36 36 38 39 40 41 42 43 44 44 43 42
19 21 23 26 27 28 27 27 26 25 26 26 22 23 24 27 30 33 35 35 34 32 32 34 35 36 37 37 38 37 37 36 37 38 39 41 42 43 44 45 45 46 45 43
14 17 20 23 26 25 26 28 27 21 17 15 16 21 26 32 34 36 38 38 37 35 34 34 35 36 36 37 37 37 37 37 38 39 40 41 42 43 45 46 46 45 43 43
12 14 17 20 21 24 24 25 25 24 21 18 16 23 29 32 33 34 37 38 39 38 37 36 35 35 35 35 36 37 37 37 38 39 40 41 43 44 45 46 46 45 45 46
12 11 14 16 19 21 23 22 23 27 25 22 17 23 30 31 31 31 33 35 36 36 35 34 34 33 33 33 34 34 35 37 38 39 41 42 43 44 45 46 46 47 48 49
14 12 13 13 16 17 20 23 25 25 26 24 21 24 26 29 31 32 31 29 29 30 30 30 29 30 31 31 32 33 34 35 37 38 40 41 43 44 45 46 47 49 50 50
14 15 14 15 15 15 18 20 23 25 26 27 24 28 29 29 31 30 27 25 25 26 27 28 28 29 30 31 32 33 34 36 37 39 40 42 44 45 47 49 50 51 52 53
13 14 14 13 15 18 19 20 23 24 24 25 26 30 31 31 31 29 26 24 24 25 26 27 29 30 31 32 33 35 36 37 39 41 42 44 46 48 49 51 52 53 54 55
12 13 15 15 17 20 22 21 22 25 24 24 27 32 33 33 32 30 27 26 25 26 27 29 30 31 33 34 35 37 38 40 41 43 44 46 48 49 51 53 54 55 55 56
11 13 14 15 15 16 18 20 21 22 24 25 28 31 34 34 34 31 28 27 27 28 30 32 33 35 36 38 39 40 42 43 44 46 47 49 50 52 53 54 55 54 54 55
10 12 13 13 13 13 13 17 19 20 24 28 30 33 33 32 32 31 28 26 27 30 32 34 36 37 38 40 41 43 44 47 48 49 50 51 51 52 53 52 52 53 54 56
10 12 13 13 13 12 15 18 18 21 24 27 30 34 37 37 35 33 31 29 28 30 31 33 35 38 39 40 41 42 44 45 46 46 46 47 48 49 50 52 53 54 55 56
9 11 12 12 14 16 19 20 21 24 26 28 29 31 34 36 35 34 32 31 32 33 34 34 34 34 35 36 37 39 39 40 41 43 44 46 48 49 50 51 52 52 53 53
8 9 11 13 14 17 19 20 22 24 25 27 29 31 32 33 34 34 33 32 33 34 34 33 34 35 35 35 36 37 38 39 41 43 44 45 46 47 49 49 50 51 51 51
9 9 10 13 16 20 21 20 19 20 23 24 24 27 29 30 31 32 32 31 32 33 33 32 33 34 34 34 35 37 38 39 40 41 42 44 45 46 47 48 48 49 50 50
10 10 12 13 16 19 21 22 22 22 23 22 23 24 25 27 27 28 28 29 29 30 31 32 33 33 34 35 36 37 38 39 40 41 42 43 44 45 45 46 47 48 48 47
12 12 13 14 16 17 18 20 21 21 21 21 21 22 23 23 24 25 25 26 27 28 30 30 31 32 33 34 35 36 37 38 39 39 40 41 42 43 43 44 44 44 43 42
12 13 14 14 15 15 16 18 18 19 20 20 20 20 21 22 22 23 24 25 26 27 28 29 30 31 32 33 34 34 35 35 36 37 38 39 39 40 40 40 40 39 37 35
14 13 13 14 14 14 15 15 16 17 18 19 19 20 21 21 21 21 22 23 24 25 26 27 28 29 29 30 31 31 32 33 34 35 35 36 36 37 37 36 34 32 30 28
14 14 14 14 14 14 14 14 15 16 17 18 18 18 19 19 20 21 22 22 23 24 24 24 24 25 25 26 27 28 30 31 32 33 33 33 32 32 31 29 28 25 23 22
14 14 15 15 15 15 15 15 15 15 16 16 16 17 17 18 18 18 19 19 20 20 20 21 21 22 23 24 25 27 28 29 30 29 29 29 28 27 25 23 21 20 19 17

GEFSCGP_500_meanwind_066.txt.gz
Wind_Speed
26 29 30 30 29 27 27 27 26 24 23 22 20 19 19 21 24 27 28 28 28 27 26 25 23 23 24 23 22 21 21 19 19 20 21 21 21 21 21 22 23 23 23 23
24 25 27 29 30 28 28 28 27 25 24 22 20 19 19 21 22 24 26 27 26 26 26 26 25 25 25 24 24 23 22 21 22 23 25 25 25 25 26 26 27 27 27 26
22 23 26 28 29 29 29 28 28 26 25 23 21 21 20 21 22 24 25 26 26 26 26 26 27 27 26 27 26 24 24 25 26 27 29 29 29 29 30 30 30 30 30 29
20 23 26 28 29 30 29 29 29 28 26 24 24 23 22 24 26 27 28 27 26 26 26 27 27 29 29 29 29 28 29 30 31 31 31 32 32 32 34 34 33 33 33 33
19 22 25 27 27 29 28 29 30 30 29 29 27 26 25 27 29 29 30 30 29 28 29 29 30 31 31 32 33 33 34 34 34 35 35 36 35 36 36 36 35 35 35 36
18 21 23 24 26 27 28 28 30 32 32 31 28 28 27 27 30 31 32 32 31 31 32 33 33 33 34 35 36 37 36 36 36 37 38 38 37 37 37 36 36 37 37 38
17 20 21 23 25 25 27 29 30 31 33 32 28 28 28 27 29 33 34 34 33 33 33 34 35 36 36 36 36 38 38 37 38 39 40 40 38 38 38 38 39 39 38 38
14 17 20 22 24 25 26 28 29 29 31 30 28 29 30 28 29 32 34 35 35 35 34 34 35 37 37 38 39 39 39 39 40 41 41 40 39 39 39 39 40 40 40 40
11 14 18 20 21 22 24 25 26 27 28 28 30 32 31 29 29 31 33 34 35 35 35 36 37 38 39 40 41 41 41 41 41 41 41 41 41 41 41 41 41 41 42 42
10 13 15 18 19 20 21 22 24 26 26 27 28 30 31 29 28 28 30 32 34 35 36 36 37 39 41 41 42 42 42 42 42 42 42 41 41 41 42 41 42 42 43 44
10 12 13 17 19 18 19 22 25 25 25 26 27 29 31 29 28 29 30 31 34 35 36 37 39 41 42 42 42 43 43 43 43 42 42 41 40 41 41 42 42 43 44 45
8 10 12 16 19 19 20 22 24 26 26 26 27 31 32 31 29 29 30 31 33 35 36 38 39 39 41 41 42 42 42 42 42 41 41 41 41 42 43 44 45 45 46 48
7 9 11 14 17 19 21 22 25 26 26 27 28 32 33 33 32 31 31 31 30 31 32 34 35 36 38 39 39 39 40 40 40 40 41 42 43 44 45 46 47 48 50 52
8 8 11 14 17 20 24 25 26 27 28 28 30 32 33 34 33 32 30 30 29 30 30 31 32 34 34 35 37 38 38 39 40 42 43 43 45 46 48 49 51 53 55 57
6 8 10 12 15 17 21 26 27 27 29 31 31 32 33 32 32 32 30 29 27 27 28 29 28 30 32 34 36 37 38 40 42 43 44 46 47 49 50 51 53 55 56 57
5 6 8 11 14 15 14 18 24 25 27 30 31 31 32 31 30 29 29 28 28 28 28 29 28 28 30 31 33 35 37 39 41 42 44 46 47 49 50 50 51 51 52 53
5 6 7 9 12 14 13 13 16 21 25 28 28 28 29 29 28 28 27 25 25 27 29 30 30 30 30 30 32 34 36 38 39 41 42 43 44 45 46 47 48 49 50 52
5 5 6 8 10 12 12 13 13 14 17 21 23 24 24 25 25 26 26 28 28 27 28 29 30 30 30 30 31 32 33 35 37 39 40 41 42 43 44 45 47 48 49 50
6 6 8 9 11 11 12 13 14 15 15 17 20 21 23 24 25 24 25 25 25 25 26 26 26 27 28 28 30 31 32 34 35 37 38 39 40 41 42 43 45 46 47 48
9 8 9 10 10 11 12 12 13 14 15 16 17 19 20 21 22 23 23 23 22 23 23 24 25 25 25 27 28 29 31 32 33 34 35 36 38 39 40 41 42 43 45 46
10 10 10 10 10 11 12 12 12 13 14 15 16 17 17 17 17 19 19 19 19 21 21 22 23 24 24 25 26 27 28 29 31 32 33 34 35 36 37 38 39 41 41 41
12 11 11 11 11 10 11 11 11 12 13 14 15 16 17 16 17 18 18 18 19 19 20 20 21 23 24 24 26 26 27 27 28 28 29 31 32 33 34 35 36 36 36 36
13 12 12 11 11 12 12 12 12 12 13 13 13 14 14 15 16 16 16 17 17 18 19 20 20 21 22 23 23 23 23 24 24 25 26 28 29 30 31 32 32 32 32 31
14 14 13 12 12 12 13 13 13 13 13 13 13 13 14 14 14 14 15 16 16 17 18 19 20 20 20 20 20 20 21 22 22 23 24 25 26 27 27 27 27 27 27 25
16 15 14 14 13 13 13 13 13 13 13 13 13 13 13 13 14 14 14 15 15 16 17 18 18 18 18 18 18 19 20 20 21 22 23 23 23 24 24 25 24 23 22 21
16 15 15 15 14 14 14 14 13 13 13 13 12 12 12 12 12 12 13 13 14 14 14 15 15 16 16 17 17 18 18 19 20 20 20 20 21 21 22 22 21 20 19 18

GEFSCGP_500_meanwind_072.txt.gz
Wind_Speed
21 22 24 25 27 28 29 30 29 29 30 29 28 28 31 32 32 32 31 31 30 28 26 25 23 22 21 21 21 21 21 21 22 23 23 24 25 26 27 28 27 27 27 26
20 21 22 25 27 28 27 28 28 28 29 30 29 29 31 32 32 31 31 30 30 29 28 26 25 24 24 22 21 22 23 24 26 27 28 28 28 28 29 31 32 30 29 29
18 19 21 23 25 27 27 27 27 28 30 30 29 29 31 32 32 31 31 30 30 31 30 28 27 26 26 25 25 26 26 26 27 29 30 31 32 31 32 33 34 33 32 32
17 18 20 22 24 25 26 27 27 28 30 30 30 30 31 31 31 31 30 30 30 31 31 31 29 29 28 28 28 30 30 29 29 30 31 33 34 34 33 32 32 32 32 33
15 18 20 21 22 24 25 27 28 29 31 30 30 31 31 31 30 30 29 29 29 31 32 31 31 30 30 31 31 32 31 31 32 32 34 37 36 34 33 34 33 34 34 34
15 17 19 20 21 23 25 27 29 30 31 31 30 31 31 31 30 29 29 29 30 31 32 32 31 31 32 32 33 33 33 33 34 34 35 37 37 37 35 34 34 34 34 35
15 16 18 20 21 23 25 27 29 30 32 31 30 31 31 31 30 29 30 31 31 32 33 33 33 33 33 34 35 36 36 35 35 36 37 38 38 37 37 37 37 38 37 37
13 14 16 18 20 22 25 27 28 30 30 31 31 32 31 31 31 30 30 31 32 33 34 34 35 35 36 36 37 38 38 37 37 37 38 38 38 38 38 38 38 37 37 36
10 13 15 17 18 20 23 25 27 28 29 30 32 33 33 32 32 32 32 32 33 34 35 35 36 37 38 38 39 38 38 38 38 38 39 40 41 40 39 39 40 40 38 38
9 12 15 17 18 20 22 23 25 28 29 30 33 33 34 33 32 33 33 33 34 35 36 37 37 38 39 40 41 41 41 41 42 42 42 42 41 39 39 40 40 40 39 38
8 11 13 15 17 18 21 23 25 26 28 29 32 34 34 34 35 35 36 36 35 35 36 38 38 39 39 40 41 42 43 44 43 42 41 42 42 40 41 40 40 40 40 41
7 9 11 14 15 17 19 21 23 25 26 28 30 32 32 33 33 34 35 36 37 37 37 36 37 38 38 39 39 40 41 41 41 41 41 41 40 40 41 41 41 41 42 43
5 7 10 12 13 14 15 17 20 23 24 26 28 30 29 30 30 31 33 34 35 36 36 36 36 37 37 37 38 37 38 38 39 40 40 40 40 41 42 42 41 42 43 45
3 5 7 9 11 12 14 16 18 20 22 24 26 29 29 29 29 29 29 30 32 32 32 33 34 34 34 35 35 35 36 37 37 39 39 38 39 41 41 42 42 43 45 47
3 4 5 7 9 11 14 15 17 19 22 24 25 27 28 28 29 29 29 29 30 30 30 30 32 32 33 34 34 34 35 35 36 37 37 38 39 40 41 42 43 45 46 49
4 4 4 6 8 10 12 14 16 18 20 22 24 27 28 29 30 29 28 28 29 29 28 28 29 30 31 31 31 31 32 32 33 33 35 36 38 39 40 42 44 45 47 49
5 4 4 5 6 8 10 12 13 14 16 18 21 23 24 26 26 27 27 27 28 28 27 26 26 26 26 27 29 29 30 30 30 32 34 35 37 39 41 42 43 44 45 47
6 6 5 6 7 8 9 11 13 14 16 17 18 20 22 22 23 24 25 25 25 26 26 26 25 25 25 25 26 27 28 29 30 32 33 35 36 37 38 39 41 42 44 45
8 8 7 7 8 8 9 10 12 13 14 16 17 18 19 21 21 21 21 21 20 21 22 23 24 24 25 26 26 26 27 28 29 30 32 33 34 35 36 37 38 39 41 42
9 9 9 9 9 9 10 10 11 12 13 14 15 15 15 16 17 18 19 19 20 21 22 23 23 23 24 24 24 25 26 27 28 29 30 31 32 33 33 35 36 37 39 40
10 11 11 10 10 10 11 11 11 10 11 12 12 13 14 15 16 17 17 18 19 20 20 21 21 21 21 21 22 23 25 26 26 27 27 28 29 30 30 32 33 34 35 36
11 12 12 11 11 11 11 10 10 10 11 11 12 12 12 13 15 15 15 16 17 18 18 18 19 20 20 21 21 22 23 23 23 24 25 26 27 27 28 29 31 32 32 33
12 13 13 12 12 12 12 11 11 11 11 11 11 11 12 12 12 13 13 14 15 16 17 18 19 19 20 20 20 21 21 21 22 23 23 24 25 26 26 28 29 29 29 30
13 14 14 13 13 13 12 12 12 12 12 11 11 11 11 11 12 12 12 13 14 14 15 16 17 17 18 19 19 19 19 20 20 22 22 23 23 23 25 26 26 26 26 26
13 14 14 14 14 13 13 12 12 12 12 11 10 10 11 11 12 12 12 12 12 13 14 15 15 16 16 17 17 17 18 19 20 21 21 21 21 22 23 23 22 22 22 22
13 14 14 14 14 14 13 13 13 13 12 12 11 11 11 11 11 11 11 11 12 13 13 13 14 14 15 15 16 16 17 18 19 19 19 20 20 20 20 20 19 19 19 18

GEFSCGP_500_meanwind_078.txt.gz
Wind_Speed
13 14 16 18 21 24 25 25 25 27 28 28 29 29 28 28 28 27 27 27 26 27 28 27 26 27 26 25 24 24 24 24 24 24 25 25 25 27 28 29 30 31 32 32
14 15 17 19 20 22 23 24 24 25 27 27 28 28 28 28 28 27 27 27 27 27 28 28 28 28 27 27 27 27 28 29 28 28 28 29 29 29 29 31 33 34 34 35
14 16 18 18 19 21 22 23 24 25 26 26 27 27 28 29 29 29 28 28 28 28 28 28 29 30 29 29 29 30 30 30 31 31 31 32 32 32 32 32 33 34 34 35
13 14 16 17 19 20 20 23 25 25 24 24 26 24 27 29 29 29 29 29 28 28 28 29 30 31 32 31 31 31 31 31 32 32 33 34 35 35 35 35 36 36 36 35
11 13 14 15 17 20 20 22 23 24 24 23 25 23 27 28 29 29 29 29 29 28 29 29 30 31 32 32 32 32 31 32 33 33 35 36 36 36 36 37 38 38 36 34
11 12 13 13 15 18 19 20 22 23 22 22 23 22 24 27 27 28 28 28 28 28 28 29 29 30 33 33 33 33 33 34 35 36 36 37 38 38 39 40 39 36 34 34
8 9 10 12 13 15 17 17 15 17 19 20 23 23 25 25 26 26 26 27 27 27 27 28 29 30 32 34 35 35 35 36 37 38 38 39 40 40 40 40 38 36 35 34
5 7 8 10 12 13 15 18 15 14 16 18 22 24 25 23 25 25 25 25 25 26 27 28 29 30 32 33 35 36 36 36 38 39 40 41 42 42 42 40 38 37 35 34
3 6 8 9 11 13 14 16 18 16 15 16 21 25 25 23 23 24 25 25 26 26 27 29 29 30 31 33 35 36 37 38 39 40 41 42 43 43 43 41 39 37 36 36
2 4 7 9 11 13 14 14 16 16 14 16 20 23 24 23 24 24 25 26 27 28 28 29 30 31 32 33 34 36 37 39 40 41 42 42 43 43 42 42 40 38 37 36
2 3 5 8 10 12 13 14 16 16 16 14 16 22 24 23 24 25 26 27 28 29 30 31 31 31 32 33 35 36 37 39 39 39 39 40 42 42 41 41 40 40 39 39
2 2 4 7 9 11 13 15 16 15 17 17 16 21 21 23 24 24 25 26 28 29 30 31 32 32 33 34 35 36 37 38 38 39 39 40 40 39 39 39 39 39 39 39
1 1 1 3 6 9 10 12 15 16 16 16 17 21 21 22 23 24 26 27 28 29 30 31 32 32 33 33 34 35 36 37 37 38 38 39 39 38 38 38 39 39 39 39
1 0 2 4 6 8 9 10 13 15 15 16 19 21 20 21 22 23 24 26 27 28 29 30 31 32 32 33 33 35 36 37 37 39 39 40 39 39 39 39 38 38 38 39
1 1 2 3 4 6 8 10 12 14 16 17 18 20 20 21 22 23 24 25 26 26 27 28 29 30 31 32 32 33 34 35 36 37 38 37 38 38 38 38 38 39 39 40
2 2 3 3 4 5 8 9 12 14 16 17 18 19 20 20 22 23 24 25 25 26 27 27 28 28 28 29 29 30 31 31 32 33 34 35 35 36 36 37 36 37 38 39
3 3 3 4 4 5 7 9 12 14 15 17 19 19 20 20 21 23 25 25 25 26 26 26 26 26 27 27 28 29 29 30 31 31 31 32 33 34 34 34 35 35 35 35
4 4 4 4 5 6 7 8 10 12 14 15 17 19 20 21 21 22 23 24 24 24 23 23 24 24 25 26 27 27 28 28 28 29 29 29 30 31 31 32 33 33 33 33
6 6 5 5 6 6 7 8 9 10 11 13 15 17 18 19 20 21 21 22 22 23 23 22 24 24 25 25 25 26 26 26 27 27 28 28 29 29 29 29 30 30 30 31
7 7 7 6 6 7 8 8 9 9 10 12 13 14 15 16 17 18 19 20 20 21 21 22 22 22 23 24 24 25 25 26 26 27 27 27 27 27 27 27 27 27 27 28
8 8 8 8 8 8 9 9 9 9 10 10 12 13 13 15 16 16 17 18 19 19 20 21 21 21 22 23 24 24 24 24 24 24 24 25 25 25 25 25 25 25 26 26
8 9 9 9 9 10 10 10 10 10 10 10 11 11 12 12 13 14 15 16 17 17 19 20 21 21 22 22 22 22 22 22 22 22 23 23 23 23 23 22 22 23 24 24
8 9 9 10 10 11 10 10 11 11 11 11 11 10 10 10 10 11 12 14 14 16 17 18 19 18 18 19 19 19 19 20 21 21 21 21 21 21 21 21 21 22 22 22
9 9 10 11 11 11 11 11 11 12 11 11 10 9 9 9 10 10 11 11 12 13 14 15 16 16 16 16 17 17 18 19 19 19 19 19 19 19 19 19 20 20 20 20
9 10 11 11 12 12 12 12 12 12 12 11 11 10 10 10 10 10 10 10 11 12 12 13 13 14 15 15 16 17 17 17 17 17 17 17 17 18 18 18 18 18 18 17
9 10 11 12 13 13 13 12 12 13 13 12 11 10 10 10 9 9 10 10 11 11 12 12 13 14 14 15 15 15 15 15 15 15 16 16 16 16 16 16 16 15 15 14